Tracking 26935 objects as of 5-Feb-2023
HD Live streaming from Space Station
objects crossing your sky now

ELEKTRON 3

Track ELEKTRON 3 now!
10-day predictions
ELEKTRON 3 is classified as:


NORAD ID: 829
Int'l Code: 1964-038A
Perigee: 413.4 km
Apogee: 6,151.4 km
Inclination: 60.8 °
Period: 157.3 minutes
Semi major axis: 9653 km
RCS: 2.8255 m2 (large)
Launch date: July 10, 1964
Source: Commonwealth of Independent States (former USSR) (CIS)
Launch site: TYURATAM MISSILE AND SPACE COMPLEX (TTMTR)
Your satellite tracking list
Your tracking list is empty




NASA's NSSDC Master Catalog

Two Line Element Set (TLE):
1 00829U 64038A   23035.49225037  .00001432  00000-0  39362-3 0  9991
2 00829  60.8065  95.8229 2972006  21.3179 348.9028  9.15341828902556
Source of the keplerian elements: AFSPC